Location: The Saddle
(36.8333°N, 80.3417°W)
Time: 06:31:34
(UTC-04:00)

Courier 1B - Pass Details

Date: 24 September 2024
Orbit: 962 x 1208 km, 28.3° (Epoch: 05 October)

Event Time Altitude Azimuth Distance (km) Brightness Sun altitude
Rises 17:44:08 0° 259° (W) 3,855 12.4 17.0°
Reaches altitude 10° 17:48:38 10° 233° (SW) 2,956 11.5 16.2°
Maximum altitude 17:51:43 13° 208° (SSW) 2,767 10.6 15.6°
Drops below altitude 10° 17:54:52 10° 182° (S) 3,028 10.3 15.0°
Sets 17:59:37 0° 157° (SSE) 4,036 10.6 14.0°
